Zurück zum Katalog

USA 555

AktivMilitärVLEO
NORAD 65271·PAYLOAD·🇺🇸 United States

Gestartet Aug 22, 2025 von Cape Canaveral Space Force Station

Loading…

Nächste Überflüge (nächste 24 Stunden)

TLE

VeraltetSource: Mike McCants

Epoche: Aug 24, 2026, 20:18 UTC

1 65271U 25183A   26236.84616148 0.00000000  00000-0  00000-0 0    00
2 65271  49.5101 145.6446 0013166 245.6147 114.3850 15.58427510    09

Verfolge USA 555 in Echtzeit mit AllMySat

Download on the App Store